Location: Shannon
(40.5500°S, 175.4167°E)
Time: 21:16:40
(UTC+00:00)

Cosmos 2074 Rocket - Pass Details

Date: 17 November 2025
Orbit: 967 x 985 km, 82.9° (Epoch: 06 December)

Event Time Altitude Azimuth Distance (km) Brightness Sun altitude
Exits shadow 13:14:02 50° 269° (W) 1,253 4.4 -28.1°
Maximum altitude 13:14:23 50° 258° (WSW) 1,245 4.4 -28.1°
Drops below altitude 10° 13:20:33 10° 183° (S) 2,771 7.2 -27.7°
Sets 13:23:11 0° 177° (S) 3,724 8.2 -27.5°
